Time,TemperatureF,DewpointF,PressureIn,WindDirection,WindDirectionDegrees,WindSpeedMPH,WindSpeedGustMPH,Humidity,HourlyPrecipIn,Conditions,Clouds,dailyrainin,SoftwareType,DateUTC
2017-12-14 00:03:00,48.0,42.1,30.05,WSW,256,0.0,0.0,80,0.00,,,0.00,meteohub,2017-12-14 08:03:00,
2017-12-14 00:08:00,48.0,42.1,30.05,WSW,256,0.0,0.0,80,0.00,,,0.00,meteohub,2017-12-14 08:08:00,
2017-12-14 00:13:00,48.2,42.6,30.05,WSW,257,0.0,0.0,81,0.00,,,0.00,meteohub,2017-12-14 08:13:00,
2017-12-14 00:18:00,48.0,42.4,30.05,WSW,256,0.0,0.0,81,0.00,,,0.00,meteohub,2017-12-14 08:18:00,
2017-12-14 00:23:00,48.0,41.9,30.04,WSW,256,0.0,0.0,79,0.00,,,0.00,meteohub,2017-12-14 08:23:00,
2017-12-14 00:26:00,48.4,42.3,30.05,WSW,256,0.0,0.0,79,0.00,,,0.00,meteohub,2017-12-14 08:26:00,
2017-12-14 00:31:00,48.6,42.1,30.05,WSW,257,0.0,0.0,78,0.00,,,0.00,meteohub,2017-12-14 08:31:00,
2017-12-14 00:41:00,48.2,42.1,30.05,WSW,257,0.0,0.0,79,0.00,,,0.00,meteohub,2017-12-14 08:41:00,
2017-12-14 00:46:00,48.2,42.1,30.04,WSW,256,0.0,0.0,79,0.00,,,0.00,meteohub,2017-12-14 08:46:00,
2017-12-14 00:52:00,48.0,41.9,30.04,WSW,256,0.0,0.0,79,0.00,,,0.00,meteohub,2017-12-14 08:52:00,
2017-12-14 00:53:00,48.0,41.9,30.04,WSW,256,0.0,0.0,79,0.00,,,0.00,meteohub,2017-12-14 08:53:00,
2017-12-14 00:58:00,48.2,41.7,30.04,WSW,257,0.0,0.0,78,0.00,,,0.00,meteohub,2017-12-14 08:58:00,
2017-12-14 01:03:00,48.6,42.1,30.04,WSW,256,0.0,0.0,78,0.00,,,0.00,meteohub,2017-12-14 09:03:00,
2017-12-14 01:08:00,48.7,42.3,30.04,WSW,256,0.0,0.0,78,0.00,,,0.00,meteohub,2017-12-14 09:08:00,
2017-12-14 01:13:00,48.6,42.1,30.04,WSW,256,0.0,0.0,78,0.00,,,0.00,meteohub,2017-12-14 09:13:00,
2017-12-14 01:18:00,48.6,42.3,30.04,WSW,257,0.0,0.0,79,0.00,,,0.00,meteohub,2017-12-14 09:18:00,
2017-12-14 01:23:00,48.6,42.1,30.04,WSW,256,0.0,0.0,78,0.00,,,0.00,meteohub,2017-12-14 09:23:00,
2017-12-14 01:28:00,48.6,42.1,30.04,WSW,256,0.0,0.0,78,0.00,,,0.00,meteohub,2017-12-14 09:28:00,
2017-12-14 01:33:00,48.4,41.5,30.04,WSW,257,0.0,0.0,77,0.00,,,0.00,meteohub,2017-12-14 09:33:00,
2017-12-14 01:38:00,48.6,41.7,30.04,WSW,256,0.0,0.0,77,0.00,,,0.00,meteohub,2017-12-14 09:38:00,
2017-12-14 01:43:00,48.6,41.7,30.04,WSW,256,0.0,0.0,77,0.00,,,0.00,meteohub,2017-12-14 09:43:00,
2017-12-14 01:44:00,48.6,41.7,30.04,WSW,256,0.0,0.0,77,0.00,,,0.00,meteohub,2017-12-14 09:44:00,
2017-12-14 01:49:00,48.6,41.7,30.04,WSW,257,0.0,0.0,77,0.00,,,0.00,meteohub,2017-12-14 09:49:00,
2017-12-14 01:54:00,48.9,41.7,30.04,WSW,256,0.0,0.0,76,0.00,,,0.00,meteohub,2017-12-14 09:54:00,
2017-12-14 01:59:00,48.9,41.7,30.04,WSW,256,0.0,0.0,76,0.00,,,0.00,meteohub,2017-12-14 09:59:00,
2017-12-14 02:04:00,49.1,41.5,30.04,WSW,256,0.0,0.0,75,0.00,,,0.00,meteohub,2017-12-14 10:04:00,
2017-12-14 02:10:00,48.9,41.4,30.04,WSW,256,0.0,0.0,75,0.00,,,0.00,meteohub,2017-12-14 10:10:00,
2017-12-14 02:15:00,48.9,41.4,30.04,WSW,256,0.0,0.0,75,0.00,,,0.00,meteohub,2017-12-14 10:15:00,
2017-12-14 02:20:00,48.7,42.3,30.04,WSW,256,0.0,0.0,78,0.00,,,0.00,meteohub,2017-12-14 10:20:00,
2017-12-14 02:26:00,48.6,42.3,30.04,WSW,256,0.0,0.0,79,0.00,,,0.00,meteohub,2017-12-14 10:26:00,
2017-12-14 02:31:00,48.4,42.4,30.05,WSW,256,0.0,0.0,80,0.00,,,0.00,meteohub,2017-12-14 10:31:00,
2017-12-14 02:36:00,48.0,41.9,30.04,WSW,256,0.0,0.0,79,0.00,,,0.00,meteohub,2017-12-14 10:36:00,
2017-12-14 02:37:00,48.0,41.9,30.04,WSW,256,0.0,0.0,79,0.00,,,0.00,meteohub,2017-12-14 10:37:00,
2017-12-14 02:42:00,48.0,41.9,30.04,WSW,256,0.0,0.0,79,0.00,,,0.00,meteohub,2017-12-14 10:42:00,
2017-12-14 02:47:00,47.8,41.0,30.04,WSW,256,0.0,0.0,77,0.00,,,0.00,meteohub,2017-12-14 10:47:00,
2017-12-14 02:52:00,47.8,40.6,30.04,WSW,256,0.0,0.0,76,0.00,,,0.00,meteohub,2017-12-14 10:52:00,
2017-12-14 02:58:00,47.8,40.6,30.04,WSW,256,0.0,0.0,76,0.00,,,0.00,meteohub,2017-12-14 10:58:00,
2017-12-14 03:03:00,48.0,40.1,30.03,WSW,255,0.0,0.0,74,0.00,,,0.00,meteohub,2017-12-14 11:03:00,
2017-12-14 03:08:00,48.2,40.3,30.03,WSW,256,0.0,0.0,74,0.00,,,0.00,meteohub,2017-12-14 11:08:00,
2017-12-14 03:10:00,48.2,40.3,30.03,WSW,256,0.0,0.0,74,0.00,,,0.00,meteohub,2017-12-14 11:10:00,
2017-12-14 03:15:00,48.0,39.7,30.03,WSW,256,0.0,0.0,73,0.00,,,0.00,meteohub,2017-12-14 11:15:00,
2017-12-14 03:20:00,48.2,39.2,30.03,WSW,256,0.0,0.0,71,0.00,,,0.00,meteohub,2017-12-14 11:20:00,
2017-12-14 03:25:00,48.6,39.2,30.03,WSW,256,0.0,0.0,70,0.00,,,0.00,meteohub,2017-12-14 11:25:00,
2017-12-14 03:30:00,48.9,38.8,30.03,WSW,256,0.0,0.0,68,0.00,,,0.00,meteohub,2017-12-14 11:30:00,
2017-12-14 03:35:00,49.5,39.0,30.03,WSW,256,0.0,0.0,67,0.00,,,0.00,meteohub,2017-12-14 11:35:00,
2017-12-14 03:40:00,49.6,39.2,30.03,WSW,256,0.0,0.0,67,0.00,,,0.00,meteohub,2017-12-14 11:40:00,
2017-12-14 03:45:00,49.6,39.2,30.03,WSW,256,0.0,0.0,67,0.00,,,0.00,meteohub,2017-12-14 11:45:00,
2017-12-14 03:51:00,49.3,39.6,30.03,WSW,256,0.0,0.0,69,0.00,,,0.00,meteohub,2017-12-14 11:51:00,
2017-12-14 03:56:00,49.1,39.7,30.03,WSW,256,0.0,0.0,70,0.00,,,0.00,meteohub,2017-12-14 11:56:00,
2017-12-14 04:01:00,48.7,39.0,30.03,West,262,0.0,0.0,69,0.00,,,0.00,meteohub,2017-12-14 12:01:00,
2017-12-14 04:06:00,48.7,38.3,30.03,West,271,0.0,0.0,67,0.00,,,0.00,meteohub,2017-12-14 12:06:00,
2017-12-14 04:09:00,48.9,38.1,30.03,West,271,0.0,0.0,66,0.00,,,0.00,meteohub,2017-12-14 12:09:00,
2017-12-14 04:14:00,49.5,38.1,30.03,West,271,0.0,0.0,65,0.00,,,0.00,meteohub,2017-12-14 12:14:00,
2017-12-14 04:19:00,49.6,37.6,30.03,West,271,0.0,0.0,63,0.00,,,0.00,meteohub,2017-12-14 12:19:00,
2017-12-14 04:24:00,50.2,37.6,30.03,West,271,0.0,0.0,62,0.00,,,0.00,meteohub,2017-12-14 12:24:00,
2017-12-14 04:30:00,50.2,37.2,30.03,West,271,0.0,0.0,61,0.00,,,0.00,meteohub,2017-12-14 12:30:00,
2017-12-14 04:35:00,50.4,36.5,30.03,WNW,290,0.0,0.0,59,0.00,,,0.00,meteohub,2017-12-14 12:35:00,
2017-12-14 04:40:00,50.5,36.7,30.03,NW,324,0.0,0.0,59,0.00,,,0.00,meteohub,2017-12-14 12:40:00,
2017-12-14 04:45:00,50.7,36.0,30.03,NW,326,0.0,0.0,57,0.00,,,0.00,meteohub,2017-12-14 12:45:00,
2017-12-14 04:50:00,50.7,36.0,30.03,NW,326,0.0,0.0,57,0.00,,,0.00,meteohub,2017-12-14 12:50:00,
2017-12-14 04:55:00,50.7,36.5,30.03,NW,326,0.0,0.0,58,0.00,,,0.00,meteohub,2017-12-14 12:55:00,
2017-12-14 05:00:00,50.5,36.7,30.03,NW,326,0.0,0.0,59,0.00,,,0.00,meteohub,2017-12-14 13:00:00,
2017-12-14 05:05:00,50.4,36.5,30.03,NW,326,0.0,0.0,59,0.00,,,0.00,meteohub,2017-12-14 13:05:00,
2017-12-14 05:10:00,50.4,37.0,30.04,NW,326,0.0,0.0,60,0.00,,,0.00,meteohub,2017-12-14 13:10:00,
2017-12-14 05:16:00,50.2,36.9,30.04,NW,326,0.0,0.0,60,0.00,,,0.00,meteohub,2017-12-14 13:16:00,
2017-12-14 05:21:00,49.8,36.5,30.04,NW,326,0.0,0.0,60,0.00,,,0.00,meteohub,2017-12-14 13:21:00,
2017-12-14 05:26:00,49.8,36.5,30.04,NW,326,0.0,0.0,60,0.00,,,0.00,meteohub,2017-12-14 13:26:00,
2017-12-14 05:31:00,49.6,36.7,30.04,NW,326,0.0,0.0,61,0.00,,,0.00,meteohub,2017-12-14 13:31:00,
2017-12-14 05:36:00,49.5,37.0,30.04,NW,326,0.0,0.0,62,0.00,,,0.00,meteohub,2017-12-14 13:36:00,
2017-12-14 05:41:00,49.3,37.2,30.04,NNW,332,0.0,0.0,63,0.00,,,0.00,meteohub,2017-12-14 13:41:00,
2017-12-14 05:45:00,49.3,36.3,30.04,NNW,332,0.0,0.0,61,0.00,,,0.00,meteohub,2017-12-14 13:45:00,
2017-12-14 05:48:00,49.5,36.5,30.04,NNW,332,0.0,0.0,61,0.00,,,0.00,meteohub,2017-12-14 13:48:00,
2017-12-14 05:53:00,49.5,36.5,30.05,NNW,331,0.0,0.0,61,0.00,,,0.00,meteohub,2017-12-14 13:53:00,
2017-12-14 05:58:00,49.6,36.0,30.04,NNW,332,0.0,0.0,59,0.00,,,0.00,meteohub,2017-12-14 13:58:00,
2017-12-14 06:03:00,50.4,36.1,30.04,NNE,33,0.0,0.0,58,0.00,,,0.00,meteohub,2017-12-14 14:03:00,
2017-12-14 06:08:00,50.7,35.6,30.04,NNE,33,0.0,0.0,56,0.00,,,0.00,meteohub,2017-12-14 14:08:00,
2017-12-14 06:13:00,51.1,36.0,30.05,NNE,33,0.0,0.0,56,0.00,,,0.00,meteohub,2017-12-14 14:13:00,
2017-12-14 06:18:00,51.1,36.9,30.04,NNE,33,0.0,0.0,58,0.00,,,0.00,meteohub,2017-12-14 14:18:00,
2017-12-14 06:23:00,50.7,36.5,30.05,NNE,33,0.0,0.0,58,0.00,,,0.00,meteohub,2017-12-14 14:23:00,
2017-12-14 06:28:00,50.5,36.7,30.05,NNE,28,0.0,0.0,59,0.00,,,0.00,meteohub,2017-12-14 14:28:00,
2017-12-14 06:34:00,50.5,37.2,30.05,NNE,28,0.0,0.0,60,0.00,,,0.00,meteohub,2017-12-14 14:34:00,
2017-12-14 06:39:00,50.4,36.5,30.05,NNE,28,0.0,0.0,59,0.00,,,0.00,meteohub,2017-12-14 14:39:00,
2017-12-14 06:44:00,50.4,36.1,30.05,NNW,328,0.0,0.0,58,0.00,,,0.00,meteohub,2017-12-14 14:44:00,
2017-12-14 06:49:00,50.4,36.1,30.05,NNW,329,0.0,0.0,58,0.00,,,0.00,meteohub,2017-12-14 14:49:00,
2017-12-14 06:54:00,50.4,36.1,30.06,NNW,328,0.0,0.0,58,0.00,,,0.00,meteohub,2017-12-14 14:54:00,
2017-12-14 06:59:00,50.2,36.3,30.06,NNW,329,0.0,0.0,59,0.00,,,0.00,meteohub,2017-12-14 14:59:00,
2017-12-14 07:04:00,50.2,36.3,30.06,NNW,328,0.0,0.0,59,0.00,,,0.00,meteohub,2017-12-14 15:04:00,
2017-12-14 07:09:00,50.0,36.3,30.06,NNW,329,0.0,0.0,59,0.00,,,0.00,meteohub,2017-12-14 15:09:00,
2017-12-14 07:14:00,49.8,36.1,30.06,NNW,329,0.0,0.0,59,0.00,,,0.00,meteohub,2017-12-14 15:14:00,
2017-12-14 07:20:00,50.2,36.0,30.06,NW,323,0.0,0.0,58,0.00,,,0.00,meteohub,2017-12-14 15:20:00,
2017-12-14 07:25:00,50.4,35.8,30.06,NW,323,0.0,0.0,57,0.00,,,0.00,meteohub,2017-12-14 15:25:00,
2017-12-14 07:27:00,50.4,35.8,30.06,NW,323,0.0,0.0,57,0.00,,,0.00,meteohub,2017-12-14 15:27:00,
2017-12-14 07:32:00,50.4,35.8,30.06,NW,323,0.0,0.0,57,0.00,,,0.00,meteohub,2017-12-14 15:32:00,
2017-12-14 07:38:00,50.5,36.0,30.06,NW,323,0.0,0.0,57,0.00,,,0.00,meteohub,2017-12-14 15:38:00,
2017-12-14 07:43:00,50.9,36.1,30.06,NNW,330,0.0,0.0,57,0.00,,,0.00,meteohub,2017-12-14 15:43:00,
2017-12-14 07:48:00,51.3,36.5,30.07,NNW,342,0.0,0.0,57,0.00,,,0.00,meteohub,2017-12-14 15:48:00,
2017-12-14 07:53:00,51.6,36.5,30.07,ENE,67,0.0,0.0,56,0.00,,,0.00,meteohub,2017-12-14 15:53:00,
2017-12-14 07:58:00,51.4,36.3,30.07,ENE,67,0.0,0.0,56,0.00,,,0.00,meteohub,2017-12-14 15:58:00,
2017-12-14 08:03:00,51.4,36.7,30.08,ENE,67,0.0,0.0,57,0.00,,,0.00,meteohub,2017-12-14 16:03:00,
2017-12-14 08:08:00,52.3,39.4,30.08,ENE,67,0.0,0.0,61,0.00,,,0.00,meteohub,2017-12-14 16:08:00,
2017-12-14 08:14:00,53.4,40.3,30.08,ENE,67,0.0,1.0,61,0.00,,,0.00,meteohub,2017-12-14 16:14:00,
2017-12-14 08:19:00,54.1,41.0,30.08,East,83,0.0,1.0,61,0.00,,,0.00,meteohub,2017-12-14 16:19:00,
2017-12-14 08:24:00,55.0,41.4,30.08,ESE,106,0.0,0.0,60,0.00,,,0.00,meteohub,2017-12-14 16:24:00,
2017-12-14 08:29:00,55.8,41.7,30.08,ESE,107,0.0,0.0,59,0.00,,,0.00,meteohub,2017-12-14 16:29:00,
2017-12-14 08:34:00,56.5,41.4,30.08,SE,124,0.0,0.0,57,0.00,,,0.00,meteohub,2017-12-14 16:34:00,
2017-12-14 08:39:00,57.0,43.3,30.08,ESE,118,0.0,0.0,60,0.00,,,0.00,meteohub,2017-12-14 16:39:00,
2017-12-14 08:44:00,57.4,43.7,30.08,SE,134,0.0,0.0,60,0.00,,,0.00,meteohub,2017-12-14 16:44:00,
2017-12-14 08:49:00,57.7,43.9,30.09,ESE,110,0.0,0.0,60,0.00,,,0.00,meteohub,2017-12-14 16:49:00,
2017-12-14 08:55:00,57.4,44.4,30.09,ESE,111,0.0,0.0,62,0.00,,,0.00,meteohub,2017-12-14 16:55:00,
2017-12-14 09:00:00,56.8,45.7,30.09,ESE,107,0.0,2.0,66,0.00,,,0.00,meteohub,2017-12-14 17:00:00,
2017-12-14 09:05:00,56.7,46.2,30.09,ENE,78,0.0,3.0,68,0.00,,,0.00,meteohub,2017-12-14 17:05:00,
2017-12-14 09:10:00,56.1,46.0,30.09,SE,139,1.0,3.0,69,0.00,,,0.00,meteohub,2017-12-14 17:10:00,
2017-12-14 09:15:00,55.9,45.5,30.09,ENE,78,0.0,5.0,68,0.00,,,0.00,meteohub,2017-12-14 17:15:00,
2017-12-14 09:20:00,56.1,46.4,30.09,ESE,107,0.0,5.0,70,0.00,,,0.00,meteohub,2017-12-14 17:20:00,
2017-12-14 09:25:00,56.5,47.1,30.09,ENE,73,0.0,5.0,71,0.00,,,0.00,meteohub,2017-12-14 17:25:00,
2017-12-14 09:30:00,56.8,47.1,30.10,SSW,197,0.0,5.0,70,0.00,,,0.00,meteohub,2017-12-14 17:30:00,
2017-12-14 09:35:00,57.6,46.2,30.10,East,82,0.0,2.0,66,0.00,,,0.00,meteohub,2017-12-14 17:35:00,
2017-12-14 09:41:00,57.9,45.3,30.10,ESE,103,0.0,2.0,63,0.00,,,0.00,meteohub,2017-12-14 17:41:00,
2017-12-14 09:46:00,58.3,44.4,30.10,WSW,256,0.0,2.0,60,0.00,,,0.00,meteohub,2017-12-14 17:46:00,
2017-12-14 09:51:00,58.8,43.2,30.10,SSE,155,0.0,2.0,56,0.00,,,0.00,meteohub,2017-12-14 17:51:00,
2017-12-14 09:56:00,59.4,42.8,30.11,SE,145,1.0,4.0,54,0.00,,,0.00,meteohub,2017-12-14 17:56:00,
2017-12-14 10:01:00,59.7,42.6,30.11,ENE,78,0.0,5.0,53,0.00,,,0.00,meteohub,2017-12-14 18:01:00,
2017-12-14 10:06:00,60.1,43.0,30.10,East,98,1.0,5.0,53,0.00,,,0.00,meteohub,2017-12-14 18:06:00,
2017-12-14 10:11:00,60.3,43.0,30.10,SE,129,1.0,5.0,53,0.00,,,0.00,meteohub,2017-12-14 18:11:00,
2017-12-14 10:16:00,60.3,43.0,30.10,East,90,0.0,6.0,53,0.00,,,0.00,meteohub,2017-12-14 18:16:00,
2017-12-14 10:21:00,60.4,42.8,30.10,SE,134,0.0,7.0,52,0.00,,,0.00,meteohub,2017-12-14 18:21:00,
2017-12-14 10:27:00,60.6,41.9,30.10,ENE,73,1.0,7.0,50,0.00,,,0.00,meteohub,2017-12-14 18:27:00,
2017-12-14 10:30:00,61.0,42.8,30.10,ENE,68,0.0,7.0,51,0.00,,,0.00,meteohub,2017-12-14 18:30:00,
2017-12-14 10:35:00,61.0,43.2,30.10,SSE,163,0.0,7.0,52,0.00,,,0.00,meteohub,2017-12-14 18:35:00,
2017-12-14 10:40:00,61.5,43.2,30.09,East,84,1.0,8.0,51,0.00,,,0.00,meteohub,2017-12-14 18:40:00,
2017-12-14 10:45:00,61.5,43.7,30.09,East,97,1.0,8.0,52,0.00,,,0.00,meteohub,2017-12-14 18:45:00,
2017-12-14 10:50:00,62.1,44.2,30.09,NNW,345,0.0,6.0,52,0.00,,,0.00,meteohub,2017-12-14 18:50:00,
2017-12-14 10:55:00,62.1,43.7,30.10,SSW,194,0.0,7.0,51,0.00,,,0.00,meteohub,2017-12-14 18:55:00,
2017-12-14 11:00:00,62.4,43.5,30.09,West,264,1.0,7.0,50,0.00,,,0.00,meteohub,2017-12-14 19:00:00,
2017-12-14 11:05:00,62.6,43.7,30.09,ENE,78,0.0,7.0,50,0.00,,,0.00,meteohub,2017-12-14 19:05:00,
2017-12-14 11:10:00,63.3,43.3,30.09,East,98,4.0,7.0,48,0.00,,,0.00,meteohub,2017-12-14 19:10:00,
2017-12-14 11:15:00,63.0,44.1,30.09,ESE,107,0.0,6.0,50,0.00,,,0.00,meteohub,2017-12-14 19:15:00,
2017-12-14 11:21:00,63.0,43.5,30.09,ENE,69,2.0,6.0,49,0.00,,,0.00,meteohub,2017-12-14 19:21:00,
2017-12-14 11:26:00,63.1,43.2,30.09,East,98,0.0,6.0,48,0.00,,,0.00,meteohub,2017-12-14 19:26:00,
2017-12-14 11:31:00,63.1,41.5,30.09,ESE,120,2.0,7.0,45,0.00,,,0.00,meteohub,2017-12-14 19:31:00,
2017-12-14 11:36:00,63.0,42.4,30.09,SE,133,0.0,7.0,47,0.00,,,0.00,meteohub,2017-12-14 19:36:00,
2017-12-14 11:39:00,63.1,42.6,30.09,NW,316,0.0,7.0,47,0.00,,,0.00,meteohub,2017-12-14 19:39:00,
2017-12-14 11:44:00,63.3,42.3,30.09,East,88,0.0,7.0,46,0.00,,,0.00,meteohub,2017-12-14 19:44:00,
2017-12-14 11:49:00,63.9,42.1,30.09,ENE,77,1.0,5.0,45,0.00,,,0.00,meteohub,2017-12-14 19:49:00,
2017-12-14 11:54:00,64.2,42.4,30.08,East,89,0.0,4.0,45,0.00,,,0.00,meteohub,2017-12-14 19:54:00,
2017-12-14 12:00:00,64.4,41.4,30.08,East,86,3.0,4.0,43,0.00,,,0.00,meteohub,2017-12-14 20:00:00,
2017-12-14 12:05:00,64.2,40.6,30.08,WNW,303,0.0,3.0,42,0.00,,,0.00,meteohub,2017-12-14 20:05:00,
2017-12-14 12:10:00,64.2,41.9,30.08,ESE,106,3.0,3.0,44,0.00,,,0.00,meteohub,2017-12-14 20:10:00,
2017-12-14 12:15:00,64.0,41.7,30.08,SSE,149,1.0,5.0,44,0.00,,,0.00,meteohub,2017-12-14 20:15:00,